This is the latest recevied weather packets stored in our database for station/object KQ4OSL. If no packets are shown the sender has not sent any weather packets the latest 10 day(s).
| Time | Temp. | Humidity | Pressure | Rain* | Wind** | Luminosity | Snow |
|---|---|---|---|---|---|---|---|
| 1777849514 | 18.89° C | 44% | 1019 hPa | 0 mm | - | 26 W/m² | - |
| 1777849212 | 18.89° C | 44% | 1019.2 hPa | 0 mm | - | 32 W/m² | - |
| 1777848909 | 18.89° C | 44% | 1019.1 hPa | 0 mm | - | 32 W/m² | - |
| 1777848604 | 18.89° C | 44% | 1019 hPa | 0 mm | - | 28 W/m² | - |
| 1777848301 | 18.89° C | 44% | 1018.9 hPa | 0 mm | - | 36 W/m² | - |
| 1777847999 | 19.44° C | 41% | 1019 hPa | 0 mm | - | 44 W/m² | - |
| 1777847697 | 19.44° C | 40% | 1018.9 hPa | 0 mm | - | 31 W/m² | - |
| 1777847392 | 19.44° C | 41% | 1019.1 hPa | 0 mm | - | 80 W/m² | - |
| 1777847091 | 19.44° C | 41% | 1019.1 hPa | 0 mm | - | 68 W/m² | - |
| 1777846788 | 19.44° C | 41% | 1019.1 hPa | 0 mm | - | 46 W/m² | - |
| 1777846486 | 19.44° C | 42% | 1019 hPa | 0 mm | - | 64 W/m² | - |
| 1777846183 | 20° C | 41% | 1019 hPa | 0 mm | - | 59 W/m² | - |
| 1777845879 | 20° C | 41% | 1019.1 hPa | 0 mm | - | 79 W/m² | - |
| 1777845576 | 20° C | 40% | 1019.1 hPa | 0 mm | - | 98 W/m² | - |
| 1777845273 | 20° C | 41% | 1019.1 hPa | 0 mm | - | 42 W/m² | - |
| 1777844971 | 20° C | 41% | 1019.1 hPa | 0 mm | - | 140 W/m² | - |
| 1777844669 | 20° C | 40% | 1019.1 hPa | 0 mm | - | 66 W/m² | - |
| 1777844366 | 20° C | 38% | 1019.3 hPa | 0 mm | - | 50 W/m² | - |
| 1777844064 | 20° C | 39% | 1019.3 hPa | 0 mm | - | 74 W/m² | - |
| 1777843760 | 20.56° C | 38% | 1019.3 hPa | 0 mm | - | 194 W/m² | - |
| 1777843457 | 20.56° C | 38% | 1019.2 hPa | 0 mm | - | 320 W/m² | - |
| 1777843155 | 21.11° C | 39% | 1019.2 hPa | 0 mm | - | 337 W/m² | - |
| 1777842852 | 20.56° C | 43% | 1019.3 hPa | 0 mm | - | 353 W/m² | - |
| 1777842548 | 21.11° C | 39% | 1019.2 hPa | 0 mm | - | 367 W/m² | - |
| 1777842245 | 20.56° C | 42% | 1019.3 hPa | 0 mm | - | 382 W/m² | - |
* Rain latest hour (hover to see other rain measurements)
** Current wind speed in m/s (hover to see current wind gust speed)